STARLINK-6035 (56323 NORAD) Tracking and Keplerian Element Data

This shows tracking and keplerian element data for the satellite.

Feedback or suggestion? Click here.




ElementValue
Catalog56323
NameSTARLINK-6035
Epoch Orbit184
Epoch Day127.25001157
Epoch Year2023
RAAN126.7432
Inclination97.663
Eccentricity0.0001474
Argument of Perigee104.0913
Mean Anonmoly191.449
Mean Motion15.67518825
Decay Rate-0.00780318
L11 56323U 23058G 23127.25001157 -.00780318 00000+0 -79097-2 0 9995
L22 56323 97.6630 126.7432 0001474 104.0913 191.4490 15.67518825 1840



Live tracking and technical data element details for STARLINK-6035 (NORAD 56323). STARLINK-6035 can be tracked NOW for your location showing map with azimuth and elevation plus other details from your city location.







IsCatalogInMostPopularTable: catalog: 56323, numindb: 3
Update: records affected: 1



GetName: 56323 STARLINK-6035

Hit Count: updated at: Mon, 05 Jun 2023 00:09:59 GMT